Theta_e
347 342 337 331 332 331 337 337 336 336 333 334 332 332 330 328 328 329 329 329 327 326 324 322 320 315 317 315 313 315 315 315 314 317 317 318 319 318 315 315 316 315 314
336 333 333 330 326 325 332 337 335 334 335 333 332 331 331 329 328 328 329 329 327 326 325 324 324 318 314 313 317 314 314 316 316 316 313 318 318 312 314 317 313 311 311
331 330 329 327 323 329 335 337 337 336 334 332 331 329 329 329 329 326 328 329 328 327 326 326 324 321 317 318 314 316 316 316 316 314 313 317 316 313 316 313 312 311 311
330 327 327 328 332 336 336 335 334 333 333 332 332 331 328 328 328 327 327 327 327 327 327 327 326 324 322 320 320 319 318 316 314 315 313 314 313 313 313 312 311 312 311
325 323 329 336 335 334 333 331 331 330 328 328 329 328 327 326 327 328 325 323 323 323 324 324 325 325 323 322 321 320 321 321 316 317 316 314 314 314 313 312 312 311 311
328 330 332 331 331 331 330 330 330 329 328 327 325 326 325 325 325 319 317 319 322 320 321 322 322 322 323 323 322 322 321 321 321 320 319 316 316 313 313 312 312 313 309
329 329 329 328 328 327 327 327 325 324 322 323 321 320 321 321 320 316 315 313 314 320 319 321 323 322 321 318 317 316 319 320 321 320 319 319 315 314 314 312 312 311 310
325 324 324 322 322 323 323 324 322 320 319 318 317 317 318 319 318 314 313 312 313 314 316 317 319 320 319 318 318 318 316 316 319 320 319 317 317 315 313 311 310 311 310
323 322 320 320 320 321 321 321 321 320 319 319 319 320 319 318 316 313 312 313 315 316 316 314 312 313 316 317 317 316 316 315 315 317 319 318 316 313 311 311 311 310 307
320 320 318 318 318 317 317 316 316 315 313 312 312 313 315 314 315 311 311 311 313 313 314 317 316 313 312 313 312 314 316 314 315 316 316 314 314 311 311 311 310 307 309
316 316 315 315 315 315 315 314 313 311 311 312 312 313 313 312 313 313 310 311 313 313 311 312 313 314 313 312 312 313 312 313 314 316 314 313 311 311 310 311 310 310 310
313 312 312 312 312 312 313 313 313 312 312 311 311 311 310 311 312 312 311 311 309 310 311 311 313 313 312 310 311 311 313 311 312 313 314 312 310 310 311 310 310 310 309
311 311 311 311 311 311 312 312 311 310 310 310 310 310 310 311 312 312 312 312 310 309 310 310 310 310 310 309 310 311 313 315 314 311 311 310 310 310 311 311 310 309 309
311 311 311 312 312 312 312 311 310 310 310 310 310 309 310 310 310 312 311 310 310 310 311 312 310 310 309 310 311 311 314 313 311 311 310 310 311 310 310 310 309 308 308
312 312 312 312 311 311 311 310 311 312 311 310 310 310 309 309 310 310 309 309 309 309 309 310 310 310 310 311 312 312 311 310 310 308 310 310 309 308 309 310 308 307 307
312 311 311 311 311 311 311 311 312 311 311 310 310 310 310 309 309 310 309 309 308 308 309 310 311 312 312 312 312 310 310 310 308 308 309 309 310 310 309 308 308 307 307
314 314 312 311 311 311 312 311 310 310 310 311 311 310 311 309 309 308 308 309 309 308 309 310 312 310 311 310 309 309 309 307 308 309 309 309 310 309 309 308 307 307 306
314 313 312 312 312 311 311 310 310 310 311 311 312 311 311 310 309 309 309 309 310 310 309 309 308 309 309 308 307 306 307 307 308 309 308 307 306 305 305 305 305 306 306
313 312 312 311 310 310 309 309 309 310 311 311 311 310 309 308 309 309 308 309 308 308 306 306 307 307 305 305 306 306 306 306 306 306 306 305 305 305 305 305 305 305 305
311 311 309 309 309 309 309 309 310 310 310 309 308 307 307 309 309 309 307 305 305 305 305 305 306 306 305 305 306 305 305 305 305 305 305 304 304 303 303 303 303 303 303
309 309 308 308 308 309 310 310 308 306 306 306 306 305 308 308 308 306 304 304 304 304 305 305 304 304 304 304 304 304 303 303 303 303 302 301 301 301 301 301 300 301 300
308 307 308 309 309 309 307 306 306 306 305 305 306 307 308 306 304 303 304 304 303 303 303 302 302 301 301 301 301 302 302 301 300 300 300 301 300 299 299 298 299 299 299
307 308 308 309 308 306 305 304 305 305 305 306 307 305 303 303 305 305 304 303 302 302 301 301 301 299 299 299 299 300 300 300 300 299 300 299 298 298 298 298 298 298 299
308 309 308 308 307 306 306 306 305 304 304 304 303 303 304 305 306 304 302 302 302 302 301 301 299 299 299 300 300 300 300 298 298 299 299 299 299 299 299 300 300 301 300
309 309 308 307 308 307 306 307 307 306 305 306 306 305 304 304 303 302 302 302 302 301 301 300 299 298 298 298 297 297 296 296 298 299 299 300 300 300 300 301 301 301 301
310 308 306 308 308 307 307 307 307 306 306 306 305 304 303 303 303 302 302 302 301 301 300 300 299 297 297 297 296 296 296 297 297 299 299 300 300 301 301 301 302 302 302
Wind_Speed
9 10 2 8 8 18 24 19 16 15 18 18 17 16 16 16 16 20 22 19 19 20 23 24 24 23 19 21 21 19 20 21 21 20 16 14 16 15 14 14 12 14 14
9 7 7 18 25 38 31 25 21 21 17 19 19 19 18 18 15 15 22 24 24 21 22 24 24 24 26 24 23 24 20 19 23 23 21 19 19 17 16 19 19 18 18
10 19 29 26 20 21 28 24 21 17 17 20 19 19 17 15 16 15 17 19 22 25 26 28 27 24 27 25 27 24 26 23 23 23 24 24 25 17 23 21 21 20 20
4 3 5 6 13 17 15 14 14 14 16 15 17 18 18 19 18 18 18 19 20 23 27 30 32 31 32 30 29 31 30 30 33 32 28 30 30 27 26 24 24 22 16
3 3 5 7 9 9 11 12 11 11 13 15 15 15 17 18 17 14 15 17 18 21 21 22 24 29 34 33 33 31 31 33 35 36 38 37 36 34 32 28 22 16 16
2 1 2 4 6 7 9 9 9 11 12 12 14 12 12 12 12 14 15 17 18 21 23 22 24 22 23 29 31 33 34 33 34 38 39 38 39 31 30 24 19 18 16
3 2 3 5 6 9 10 9 9 11 11 11 13 15 13 12 18 18 16 17 18 19 23 23 24 22 21 19 21 21 23 30 33 31 34 34 37 37 25 21 19 18 17
3 4 6 10 10 9 7 9 15 17 20 19 19 19 18 19 20 20 21 23 26 28 25 25 22 25 26 30 27 27 31 26 27 30 33 30 29 27 22 18 19 16 13
8 8 10 10 9 11 14 15 15 15 15 16 16 18 18 17 21 21 22 22 23 23 22 25 27 29 24 24 25 25 27 29 26 26 28 24 24 21 21 21 19 18 15
7 8 9 10 10 11 11 13 12 12 16 19 21 21 20 21 22 23 22 23 20 20 23 24 24 24 31 36 22 23 26 26 28 24 24 27 23 24 24 21 17 15 15
7 9 10 10 10 11 12 11 14 16 16 19 21 21 21 19 20 22 22 24 23 24 25 25 25 26 22 22 22 27 28 24 25 27 22 25 23 27 25 23 21 17 13
8 8 9 10 10 11 12 15 16 18 19 22 22 24 21 20 20 21 24 24 25 28 25 24 23 25 26 25 26 28 27 21 23 19 27 28 28 25 22 20 19 17 13
8 8 10 11 13 13 14 18 20 20 22 24 26 26 24 22 21 21 20 24 27 28 27 24 24 26 28 29 28 25 22 23 24 19 20 22 24 19 15 16 16 16 14
12 14 15 15 16 16 18 22 22 24 25 26 27 27 27 26 24 21 23 26 24 23 26 23 25 25 26 23 22 19 17 17 18 22 21 19 17 17 16 15 14 14 15
17 18 19 20 19 21 23 24 27 26 26 30 26 28 30 28 24 27 27 25 29 29 28 22 20 22 21 19 14 13 15 15 18 18 16 14 14 14 14 15 14 16 15
19 21 22 23 25 24 26 28 27 30 29 29 30 28 26 21 24 25 28 31 34 25 22 18 15 16 16 15 12 14 16 16 14 16 12 11 10 11 12 13 14 16 15
16 18 22 23 24 24 26 29 33 32 27 25 20 25 23 18 23 29 32 27 21 17 13 14 14 14 14 12 8 11 15 15 8 7 6 8 9 9 10 13 15 15 15
14 18 20 20 22 26 27 30 28 25 24 21 18 19 22 23 28 20 18 16 9 6 5 4 6 3 7 4 6 13 11 5 3 6 7 6 7 8 9 11 11 11 12
13 18 17 21 26 28 24 21 22 22 21 22 21 19 20 21 12 12 10 7 5 3 9 8 13 13 10 10 8 6 6 6 6 5 4 5 6 7 9 9 9 10 9
18 20 23 22 19 16 18 19 21 23 21 18 14 13 13 7 7 7 3 11 14 12 14 13 9 10 9 8 7 6 5 5 3 2 2 3 3 5 7 6 5 8 10
18 15 14 15 12 12 14 17 17 18 19 16 12 9 4 4 7 9 12 18 15 12 11 11 10 9 8 7 5 3 3 2 0 1 1 1 2 3 4 5 4 6 6
12 11 8 8 9 12 13 14 14 14 13 9 8 7 11 16 15 21 16 13 12 11 10 10 9 9 7 5 4 4 2 1 1 1 2 4 5 6 7 8 8 9 8
6 4 6 6 11 12 15 18 19 16 14 13 15 22 23 21 17 11 11 11 11 12 12 11 11 10 8 8 7 4 3 3 3 7 8 8 9 9 9 9 9 8 9
4 3 4 8 9 11 15 18 19 23 24 23 24 23 14 12 10 9 9 10 10 12 12 12 13 13 10 8 7 6 6 8 13 11 11 12 11 11 10 10 9 8 9
3 1 4 9 7 6 7 8 8 10 10 8 10 11 11 10 8 8 8 9 9 10 12 13 13 12 12 12 9 11 13 16 17 15 12 12 12 11 10 9 9 8 9
4 5 11 5 4 5 6 7 9 9 8 7 8 8 8 7 6 6 5 6 7 8 10 11 13 13 11 11 11 13 15 15 16 17 12 7 4 5 8 7 6 5 6
Wind_Direction
174 188 186 338 319 321 287 279 279 281 287 284 275 273 280 277 276 268 261 251 252 257 255 260 257 251 236 235 246 241 235 238 246 247 242 235 234 231 238 247 249 256 268
211 213 205 295 304 295 279 277 285 287 279 280 274 276 273 275 273 282 269 261 257 251 260 257 260 253 248 241 232 246 246 240 236 244 247 239 231 251 251 240 262 251 250
302 308 283 272 242 278 276 285 283 282 284 280 276 278 269 267 269 277 270 266 262 260 256 262 259 252 249 244 248 245 250 244 239 241 241 241 245 262 241 253 250 253 258
334 236 275 282 290 279 280 284 293 292 286 285 282 275 275 277 275 279 277 277 276 275 270 265 262 255 251 248 247 252 250 246 252 253 246 245 248 248 254 251 248 260 246
46 350 321 294 277 284 293 301 303 294 297 301 300 295 290 289 283 280 283 283 282 283 283 280 273 267 256 256 250 250 256 255 250 251 250 251 248 242 245 247 252 249 237
72 333 284 283 294 303 315 317 314 312 314 311 308 303 300 297 287 296 300 300 291 289 283 279 277 277 264 258 258 259 264 264 256 256 254 247 250 239 244 242 247 226 230
79 54 13 351 330 326 323 322 317 313 310 313 310 305 300 306 300 305 301 305 311 302 299 286 275 266 260 263 266 274 273 266 258 262 257 257 246 244 243 231 212 221 234
39 8 3 352 340 330 324 312 307 309 309 310 308 303 295 303 291 300 294 291 290 287 292 296 287 280 278 278 269 263 267 277 269 254 255 252 253 251 232 217 220 227 234
353 351 342 332 318 309 308 314 320 324 322 319 313 304 298 303 302 301 306 296 287 288 285 282 286 288 290 287 281 275 272 273 271 277 251 240 245 224 199 201 205 237 212
334 333 328 323 319 316 320 321 323 326 323 315 312 308 302 302 301 301 297 296 294 295 292 278 274 290 283 272 286 280 281 287 268 258 254 236 219 203 203 216 231 205 219
325 319 318 315 314 314 316 317 314 316 314 321 318 315 311 310 307 305 298 295 296 294 294 289 286 286 285 283 278 272 276 296 285 245 246 217 205 202 209 217 208 203 223
311 313 311 310 309 310 309 310 310 312 311 317 320 317 311 310 311 315 313 312 300 293 290 289 287 284 287 282 277 278 271 274 275 257 222 200 205 205 219 212 206 203 214
300 308 305 304 304 305 312 316 310 310 308 314 318 320 315 314 311 314 317 310 309 307 294 291 284 284 282 282 283 282 265 249 253 221 204 199 203 201 193 199 197 208 213
281 292 299 304 302 299 308 313 314 313 311 309 309 314 313 310 307 307 308 311 313 310 298 294 288 289 292 288 281 270 240 229 219 203 195 207 210 192 193 198 202 208 218
286 289 292 296 298 304 307 310 309 303 303 303 301 305 305 298 298 300 303 309 311 307 305 294 291 296 300 289 276 240 220 210 189 204 195 205 197 192 195 199 207 214 226
285 285 292 300 301 306 308 310 306 305 302 301 304 307 306 298 296 301 299 303 307 292 295 296 290 290 297 277 271 226 198 179 179 170 200 194 194 204 201 208 220 229 234
286 288 291 295 299 308 312 312 310 309 306 306 303 304 307 313 312 310 306 309 311 296 290 292 291 294 295 270 224 190 171 159 168 182 187 210 211 217 212 228 238 239 239
292 293 301 299 308 309 310 309 305 307 311 311 312 310 311 317 322 319 315 315 329 324 328 341 346 349 162 153 145 145 134 135 189 180 186 197 210 220 227 232 233 234 227
302 298 298 302 306 306 307 307 310 312 314 314 316 317 314 319 330 352 1 356 8 71 75 55 55 48 89 80 82 101 125 148 155 159 179 199 217 228 239 243 226 206 202
304 306 308 313 310 311 310 312 312 315 317 316 318 315 314 344 354 323 49 98 85 96 73 70 55 54 67 79 95 113 119 127 133 147 181 212 231 237 236 221 221 216 218
309 313 318 322 315 318 324 326 326 322 320 316 316 326 1 47 27 89 88 75 65 58 63 62 62 58 54 56 64 79 82 74 51 244 235 213 211 205 195 196 164 193 222
320 314 311 335 348 357 349 351 358 3 10 29 68 74 91 92 96 91 74 71 64 60 54 48 41 39 33 32 34 18 20 30 53 111 122 124 124 122 121 120 122 129 130
321 356 9 44 54 37 39 41 39 41 46 69 98 100 96 88 95 77 70 63 60 59 53 48 39 24 24 27 36 61 83 98 122 104 108 113 114 116 117 116 120 126 138
41 4 97 81 84 66 55 55 55 61 78 84 90 85 64 56 76 76 68 59 59 52 44 37 31 36 43 43 49 70 92 99 97 105 104 100 106 105 109 114 118 110 124
14 102 75 116 94 69 41 40 57 66 66 51 29 35 53 67 78 82 67 56 55 45 38 37 36 37 43 49 64 94 108 119 118 102 96 95 96 94 105 110 118 113 116
128 83 129 119 96 60 36 40 40 36 36 39 45 56 56 63 66 67 55 50 46 42 38 34 32 40 45 47 86 107 121 119 112 109 101 86 79 85 91 98 106 117 129